Location: ????????
(41.2031°N, 22.5756°E)
Time: 15:24:41
(UTC+00:00)

Meteor 1-14 Rocket - Pass Details

Date: 01 December 2020
Orbit: 834 x 919 km, 81.3° (Epoch: 20 January)

Event Time Altitude Azimuth Distance (km) Brightness Sun altitude
Rises 16:11:30 0° 353° (N) 3,552 7.3 -12.9°
Reaches altitude 10° 16:14:00 10° 356° (N) 2,613 6.6 -13.4°
Maximum altitude 16:19:57 67° 78° (ENE) 996 4.3 -14.4°
Drops below altitude 10° 16:25:53 10° 161° (SSE) 2,602 6.7 -15.5°
Sets 16:28:22 0° 164° (SSE) 3,536 7.4 -15.9°
